Regional Weather Roundup
Issued by NWS

Home | Current Version | Previous Version | Text Only | Print | Product List | Glossary On
Versions: 1 2 3 4 5 6 7 8 9 10 11 12 13 14 15 16 17 18 19 20 21 22 23 24 25 26 27 28 29 30 31 32 33 34 35 36 37 38 39 40 41 42 43 44 45 46 47 48 49 50
513
ASUS44 KFWD 061415
RWRTX
NORTH TEXAS HOURLY WEATHER ROUNDUP
NATIONAL WEATHER SERVICE FORT WORTH TX
800 AM CST TUE DEC 06 2016

NOTE: "FAIR" INDICATES FEW OR NO CLOUDS BELOW 12,000 FEET WITH NO
SIGNIFICANT WEATHER AND/OR OBSTRUCTIONS TO VISIBILITY.

TXZ118-119-061500-
DALLAS/FORT WORTH METROPLEX

CITY           SKY/WX    TMP DP  RH WIND       PRES   REMARKS
DFW AIRPORT    CLOUDY    49  47  93 N10       29.91R FOG
DALLAS LOVE    DRIZZLE   50  48  93 N7        29.91R FOG
FTW MEACHAM    LGT RAIN  51  47  86 N14       29.90R FOG
DAL-EXECUTIVE  LGT RAIN  50  49  96 NE9       29.89R FOG
FTW-ALLIANCE   DRIZZLE   49  47  93 N14G22    29.91R FOG
FTW-NAS-JRB    CLOUDY    51  49  92 N13       29.91R
FTW-SPINKS     LGT RAIN  50  48  93 N6        29.90R
ARLINGTON      LGT RAIN  50  48  93 N13       29.90R FOG
GRAND PRAIRIE  LGT RAIN  50  50 100 N5        29.90
ADDISON        DRIZZLE   50  50 100 N12       29.91R
MESQUITE       CLOUDY    48  48 100 N3        29.91R FOG
LANCASTER      CLOUDY    51  49  93 N8        29.91R FOG
$$

TXZ091>094-102>105-117-120-121-131>134-061500-
NORTH CENTRAL TEXAS

CITY           SKY/WX    TMP DP  RH WIND       PRES   REMARKS
SHRMAN/DENISON CLOUDY    49  46  92 N18G28    29.94R
GAINESVILLE    CLOUDY    46  45  95 N7        29.95R FOG
BOWIE          CLOUDY    46  46  99 N10G16    29.95R FOG
BRIDGEPORT     DRIZZLE   47  47 100 N8        29.96R
DENTON         CLOUDY    48  46  93 N9        29.93R
MCKINNEY       CLOUDY    48  46  93 N12       29.92R
BONHAM         CLOUDY    46  45  93 N5        29.93R
GREENVILLE     CLOUDY    46  46 100 N3        29.92R FOG
ROCKWALL       CLOUDY    48  48 100 NE9       29.91R FOG
TERRELL        CLOUDY    49  47  93 N8        29.91R FOG
WAXAHACHIE     CLOUDY    49  49 100 N5        29.90R FOG
CLEBURNE       CLOUDY    48  48 100 N6        29.90R FOG
GRANBURY       CLOUDY    49  47  95 NW6       29.93R FOG
$$

TXZ083>090-098>101-113>116-127>130-139>142-154-155-061500-
WESTERN NORTH TEXAS

CITY           SKY/WX    TMP DP  RH WIND       PRES   REMARKS
WICHITA FALLS  CLOUDY    40  34  79 N26G35    30.01R WCI  29
WF-KICKAPOO    CLOUDY    42  37  84 N16G30    30.03R WCI  33
VERNON         PTCLDY    39  26  59 N18G25    30.06R WCI  29
ABILENE        LGT RAIN  42  41  96 N16       29.97R FOG     WCI  34
ABILENE-DYESS  CLOUDY    41  37  87 N17       29.97R HAZE    WCI  32
CISCO          MIX PCPN  43  43 100 N15       29.92R VSB 3/4 WCI  35
GRAHAM         CLOUDY    44  44 100 N13G21    29.95R FOG     WCI  37
MINERAL WELLS  CLOUDY    47  46  97 N18G24    29.92R FOG     WCI  40
STEPHENVILLE   CLOUDY    44  41  91 N12       29.94R VSB 1/2 WCI  37
COMANCHE       CLOUDY    46  46 100 N14G22    29.92R WCI  40
BROWNWOOD      CLOUDY    45  43  93 N18       29.93R WCI  37
COLEMAN        CLOUDY    46  43  88 N20G28    29.93R WCI  39
$$

TXZ143>147-156>162-174-175-061500-
CENTRAL TEXAS

CITY           SKY/WX    TMP DP  RH WIND       PRES   REMARKS
WACO           FOG       45  45 100 W3        29.87R VSB 1/16
WACO-MCGREGOR  MOCLDY    43  43 100 CALM      29.87R FOG
HILLSBORO      CLOUDY    48  48 100 N5        29.88R FOG
CORSICANA      CLOUDY    51  49  92 CALM      29.89R
MEXIA          FOG       48  47  97 SW3       29.86R VSB 1
HEARNE         CLEAR     46  46 100 CALM      29.87R FOG
CAMERON        CLEAR     48  47  97 SW3       29.86R
TEMPLE         CLEAR     44  44 100 NW6       29.86R
KILLEEN        CLEAR     50  43  76 NW10      29.86R
KILLEEN-SKYLRK CLEAR     48  45  89 NW10      29.87R
FORT HOOD      CLEAR     48  45  87 NW6       29.85R
GATESVILLE       N/A     48  45  87 NW7       29.89R
HAMILTON       CLEAR     47  45  90 NW18      29.90R
LAMPASAS       CLOUDY    50  45  80 W10       29.88R
$$

TXZ095>097-106>112-122>126-135>138-148>153-164>167-061500-
EAST TEXAS

CITY           SKY/WX    TMP DP  RH WIND       PRES   REMARKS
PARIS          CLOUDY    46  43  87 N7        29.92R
SULPHUR SPRNGS CLOUDY    47  47  99 NW3       29.94R FOG
MOUNT PLEASANT CLOUDY    47  47 100 W6        29.93R
GILMER           N/A     47  46  99 NW6       29.89R FOG
MINEOLA        CLOUDY    48  48 100 N6        29.90R FOG
TYLER          CLOUDY    50  49  96 N3        29.88R FOG
LONGVIEW       CLOUDY    50  50 100 NW3       29.87R FOG
MARSHALL       CLOUDY    47  46  93 CALM      29.91R
ATHENS         DRIZZLE   48  48 100 CALM      29.87R
PALESTINE      CLOUDY    50  50 100 CALM      29.89R FOG
JACKSONVILLE   CLOUDY    49  49 100 CALM      29.88S FOG
HENDERSON      CLOUDY    49  49 100 CALM      29.89S
CENTER         CLOUDY    52  50  95 NW5       29.91R
NACOGDOCHES    CLOUDY    50  48  93 SW3       29.88R
LUFKIN         CLOUDY    50  49  96 W3        29.89R
$$

SUPPLEMENTAL OBSERVATIONS (CENTRAL)

CITY           SKY/WX    TMP DP  RH WIND       PRES   REMARKS
DENISON DAM      N/A     48  43  81 N13         N/A
CADDO GRASSLND   N/A     46  43  87 CALM        N/A
PAT MAYSE LAKE   N/A     45  43  93 W2          N/A
GREENVILLE       N/A     46  45  93 N10         N/A
CEDAR HILL       N/A     48  46  93 NE8         N/A
ATHENS           N/A     50  48  93 N1          N/A
LAKE LIMESTONE   N/A     48  46  93 CALM        N/A
MCGREGOR         N/A     43  41  93 SW2         N/A
TEMPLE           N/A     46  45  93 W3          N/A
$$

SUPPLEMENTAL OBSERVATIONS (WEST)

CITY           SKY/WX    TMP DP  RH WIND       PRES   REMARKS
MILLERS CREEK    N/A     41  36  81 N14G28      N/A  WCI  33
POSSUM KINGDOM   N/A     45  43  93 N13G25      N/A  WCI  38
LBJ GRASSLAND    N/A     46  45  93 CALM        N/A
GRANBURY         N/A     48  46  93 NW7         N/A
COMANCHE         N/A     45  41  87 N22         N/A  WCI  36
HAMBY            N/A     43  41  93 VRB16G23    N/A  WCI  35
IVIE RESERVOIR   N/A     46  39  76 NW15G22     N/A
COLORADO BEND    N/A     48  39  71 N14G23      N/A
$$

SUPPLEMENTAL OBSERVATIONS (EAST)

CITY           SKY/WX    TMP DP  RH WIND       PRES   REMARKS
CLARKSVILLE      N/A     46  45  93 W1          N/A
TEXARKANA        N/A     46  45  93 W2          N/A
LINDEN           N/A     46  45  93 NW6         N/A
CADDO LAKE       N/A     48  46  93 W1          N/A
GILMER           N/A     48  46  93 N3          N/A
HENDERSON        N/A     48  45  87 N2          N/A
LUFKIN           N/A     52  48  87 MISG        N/A
N SABINE NF      N/A     50  48  93 MISG        N/A
S SABINE NF      N/A     50  48  93 S1          N/A
$$

SUPPLEMENTAL OBSERVATIONS ARE A COLLECTION OF AUTOMATED INSTRUMENTS
THAT ARE MAINTAINED BY A VARIETY OF FEDERAL AND STATE AGENCIES.
CERTAIN ELEMENTS...SUCH AS HUMIDITY VALUES AND SUSTAINED WIND
SPEEDS...MAY BE APPROXIMATED.





USA.gov is the U.S. government's official web portal to all federal, state and local government web resources and services.